#datint,netname,site,siteID,timestamp,IntT,BattV,AirT2,AirT,AirT_Avg,AirT_Max,AirT_Min,RH_Avg,RH_Max,RH_Min,EA_Avg,Td_Avg,Td_Max,Td_Min,WindS_Smp,WindS_Avg,WindD_Avg,WindD_SD,WindS_Max,ETo,ETr,SoilT4,SoilT8,SoilVWC8,SolarW_Avg,wetstate_Avg,wetT_Avg,Precip_accum,Precip_WPG,Precip_TB
15min,AgWx,beryljct,423,16NOV2020:00:00:00,27.7,12.79,22.5,22.1,23.9,25.0,22.1,73,79,68,0.320,16.6,18.0,15.5,1.096,2.3,132,14,4.7,-0.00007,-0.00008,39.6,43.1,8,0,.,.,6.01,0.00,0.00
15min,AgWx,beryljct,423,16NOV2020:00:15:00,27.1,12.79,25.2,24.5,23.1,24.5,21.8,76,80,68,0.304,16.5,17.8,15.2,2.061,0.7,162,23,2.1,-0.00015,-0.00022,39.4,43.0,8,0,.,.,6.01,0.00,0.00
15min,AgWx,beryljct,423,16NOV2020:00:30:00,26.6,12.79,24.3,24.1,24.2,24.6,23.7,70,72,67,0.303,15.9,16.7,15.1,1.732,2.0,175,9.9,2.5,-0.00008,-0.00009,39.2,43.0,8,0,.,.,6.01,0.00,0.00
15min,AgWx,beryljct,423,16NOV2020:00:45:00,26.2,12.79,22.7,22.2,23.9,24.6,22.2,69,71,68,0.286,15.2,15.9,14.0,3.727,2.8,168,16,4.5,-0.00004,-0.00004,39.0,43.0,8,0,.,.,6.01,0.00,0.00
15min,AgWx,beryljct,423,16NOV2020:01:00:00,25.8,12.78,29.8,27.5,24.4,27.5,22.2,70,72,68,0.347,16.0,18.4,14.1,2.236,1.7,212,15,3.8,-0.00009,-0.00012,38.7,42.9,8,0,.,.,6.01,0.00,0.00
15min,AgWx,beryljct,423,16NOV2020:01:15:00,25.8,12.76,24.2,23.8,24.9,28.2,22.6,66,69,63,0.293,15.2,18.4,13.5,3.858,3.8,303,17,5.0,-0.00001,0.00000,38.6,42.9,8,0,.,.,6.01,0.00,0.00
15min,AgWx,beryljct,423,16NOV2020:01:30:00,25.6,12.75,22.1,22.4,23.3,24.3,22.4,68,73,64,0.280,14.2,15.3,13.0,0,1.3,17,56,3.9,-0.00011,-0.00014,38.4,42.8,8,0,.,.,6.01,0.00,0.00
15min,AgWx,beryljct,423,16NOV2020:01:45:00,25.3,12.75,21.7,21.4,23.3,24.5,21.3,69,74,66,0.292,14.5,15.7,13.4,0.614,1.2,136,17,3.4,-0.00011,-0.00015,38.1,42.8,8,0,.,.,6.01,0.00,0.00
15min,AgWx,beryljct,423,16NOV2020:02:00:00,24.8,12.72,22.5,22.4,22.2,23.3,21.1,71,74,69,0.300,14.3,15.6,13.1,2.609,0.7,184,11,2.7,-0.00014,-0.00020,38.0,42.7,8,0,.,.,6.01,0.00,0.00
15min,AgWx,beryljct,423,16NOV2020:02:15:00,24.4,12.72,21.5,21.9,22.7,23.5,21.8,74,76,72,0.301,15.7,16.7,14.3,0,1.1,148,18,2.5,-0.00012,-0.00016,37.8,42.7,8,0,.,.,6.02,0.00,0.00
15min,AgWx,beryljct,423,16NOV2020:02:30:00,24.1,12.72,20.6,20.4,22.3,24.3,20.4,75,78,71,0.291,15.6,16.7,14.3,3.113,1.7,298,33,3.6,-0.00009,-0.00012,37.6,42.6,8,0,.,.,6.01,0.00,0.00
15min,AgWx,beryljct,423,16NOV2020:02:45:00,23.6,12.71,22.2,21.4,20.5,21.6,19.7,75,77,72,0.285,13.7,14.5,13.0,4.757,4.0,309,4.8,5.1,-0.00002,-0.00002,37.4,42.6,8,0,.,.,6.02,0.00,0.00
15min,AgWx,beryljct,423,16NOV2020:03:00:00,23.4,12.7,25.2,24.2,22.7,24.8,21.3,72,73,70,0.311,15.1,16.6,13.8,4.165,4.6,290,5.4,6.1,-0.00000,0.00001,37.2,42.5,8,0,.,.,6.02,0.00,0.00
15min,AgWx,beryljct,423,16NOV2020:03:15:00,23.7,12.69,24.4,24.6,25.1,25.8,24.3,70,71,68,0.317,16.6,17.0,16.0,3.025,5.0,281,20,6.4,0.00001,0.00003,37.1,42.4,8,0,.,.,6.02,0.00,0.00
15min,AgWx,beryljct,423,16NOV2020:03:30:00,24.1,12.68,20.5,22.1,25.2,27.6,22.1,68,71,63,0.290,16.1,17.3,14.3,1.447,1.2,200,8.5,3.5,-0.00012,-0.00015,36.9,42.4,8,0,.,.,6.02,0.00,0.00
15min,AgWx,beryljct,423,16NOV2020:03:45:00,23.8,12.66,21.7,21.2,21.1,21.8,20.4,74,78,71,0.279,14.3,15.3,13.4,0.526,0.5,182,0.2,1.8,-0.00015,-0.00022,36.7,42.3,8,0,.,.,6.02,0.00,0.00
15min,AgWx,beryljct,423,16NOV2020:04:00:00,23.4,12.67,23.3,22.8,22.3,23.3,21.0,72,75,70,0.304,14.6,15.7,13.2,1.863,1.8,221,23,2.8,-0.00008,-0.00010,36.6,42.2,8,0,.,.,6.02,0.00,0.00
15min,AgWx,beryljct,423,16NOV2020:04:15:00,23.2,12.65,22.3,23.2,22.7,23.8,22.0,73,75,69,0.294,15.3,16.1,14.6,5.787,2.8,206,15,5.8,-0.00005,-0.00006,36.4,42.2,8,0,.,.,6.02,0.00,0.00
15min,AgWx,beryljct,423,16NOV2020:04:30:00,23.2,12.65,22.2,22.0,23.3,24.3,22.0,68,72,66,0.290,14.3,14.9,13.7,1.885,2.5,137,30,5.9,-0.00005,-0.00006,36.3,42.1,9,0,.,.,6.02,0.00,0.00
15min,AgWx,beryljct,423,16NOV2020:04:45:00,23.2,12.64,23.7,25.1,24.0,26.8,21.9,69,73,63,0.305,15.3,16.5,14.3,1.995,2.9,44,23,4.4,-0.00004,-0.00004,36.1,42.0,8,0,.,.,6.02,0.00,0.00
15min,AgWx,beryljct,423,16NOV2020:05:00:00,23.1,12.63,21.3,21.2,22.5,24.8,21.2,71,75,66,0.290,14.6,15.9,13.4,0,1.1,314,4.0,3.0,-0.00012,-0.00016,35.9,42.0,8,0,.,.,6.02,0.00,0.00
15min,AgWx,beryljct,423,16NOV2020:05:15:00,22.5,12.63,21.4,21.1,20.9,21.2,20.6,75,75,74,0.291,14.1,14.4,13.8,0.46,0.4,310,0.1,1.1,-0.00016,-0.00024,35.8,41.9,8,0,.,.,6.02,0.00,0.00
15min,AgWx,beryljct,423,16NOV2020:05:30:00,22.1,12.61,20.5,19.5,20.7,21.2,19.4,76,80,73,0.290,14.3,15.2,13.6,2.718,2.1,135,63,3.2,-0.00008,-0.00009,35.6,41.9,9,0,.,.,6.02,0.00,0.00
15min,AgWx,beryljct,423,16NOV2020:05:45:00,21.5,12.6,18.9,18.8,19.5,20.0,18.7,81,82,80,0.290,14.6,15.2,13.9,0,1.1,135,4.0,2.8,-0.00012,-0.00015,35.5,41.8,8,0,.,.,6.02,0.00,0.00
15min,AgWx,beryljct,423,16NOV2020:06:00:00,21.2,12.59,23.2,22.5,20.7,22.5,18.7,79,83,74,0.307,15.3,15.8,14.1,0.329,0.8,231,20,2.5,-0.00014,-0.00019,35.4,41.7,8,0,.,.,6.02,0.00,0.00
15min,AgWx,beryljct,423,16NOV2020:06:15:00,21.1,12.6,23.1,23.0,22.7,23.1,22.4,73,74,72,0.305,15.3,15.6,14.9,0.066,0.6,275,8.6,1.1,-0.00016,-0.00022,35.2,41.7,8,0,.,.,6.02,0.00,0.00
15min,AgWx,beryljct,423,16NOV2020:06:30:00,21.1,12.59,22.3,23.2,23.1,24.6,21.8,73,76,71,0.302,15.8,17.0,14.8,1.754,1.2,234,4.5,2.8,-0.00012,-0.00016,35.1,41.6,9,0,.,.,6.02,0.00,0.00
15min,AgWx,beryljct,423,16NOV2020:06:45:00,21.1,12.58,20.1,20.1,21.0,23.0,20.1,76,79,71,0.293,14.7,15.4,14.2,1.008,2.5,233,0.4,3.6,0.00008,0.00013,34.9,41.5,8,0,.,.,6.02,0.00,0.00
15min,AgWx,beryljct,423,16NOV2020:07:00:00,20.9,12.59,21.5,22.0,21.1,22.6,19.9,77,79,73,0.297,15.1,16.0,14.3,0.636,0.4,233,0.0,1.6,0.00002,0.00003,34.8,41.4,8,0,.,.,6.02,0.00,0.00
15min,AgWx,beryljct,423,16NOV2020:07:15:00,20.8,12.57,20.7,19.8,20.9,21.9,19.7,75,78,73,0.289,14.2,15.1,13.3,3.288,2.2,205,9.8,3.3,0.00008,0.00013,34.6,41.3,8,3,.,.,6.02,0.00,0.00
15min,AgWx,beryljct,423,16NOV2020:07:30:00,20.6,12.72,18.4,18.1,19.3,20.1,18.0,78,80,76,0.264,13.6,14.9,11.9,2.346,2.8,186,21,4.1,0.00011,0.00017,34.5,41.3,8,14,.,.,6.02,0.00,0.00
15min,AgWx,beryljct,423,16NOV2020:07:45:00,20.6,13.12,21.4,20.5,19.1,20.6,17.9,77,80,74,0.284,13.2,14.8,12.0,2.653,3.1,171,7.4,4.9,0.00022,0.00028,34.4,41.2,9,57,.,.,6.02,0.00,0.00
15min,AgWx,beryljct,423,16NOV2020:08:00:00,21.8,13.74,24.3,25.1,23.1,27.1,20.6,73,76,69,0.328,15.9,18.4,13.9,3.113,3.2,168,15,4.7,0.00033,0.00042,34.3,41.1,8,93,.,.,6.02,0.00,0.00
15min,AgWx,beryljct,423,16NOV2020:08:15:00,24.4,14.89,27.1,26.7,26.1,27.5,24.3,75,79,71,0.387,19.2,21.0,17.3,2.368,2.4,143,16,4.1,0.00043,0.00052,34.2,41.1,8,132,.,.,6.02,0.00,0.00
15min,AgWx,beryljct,423,16NOV2020:08:30:00,27.3,14.83,28.5,27.7,27.7,28.3,26.7,73,79,66,0.345,20.3,21.9,17.2,3.814,2.2,320,42,4.5,0.00056,0.00065,34.1,41.0,8,171,.,.,6.02,0.00,0.00
15min,AgWx,beryljct,423,16NOV2020:08:45:00,30.0,14.84,29.6,29.2,28.4,29.2,27.7,62,67,60,0.326,17.1,18.3,16.6,2.455,3.7,348,7.1,4.9,0.00075,0.00094,34.0,40.9,8,212,.,.,6.01,0.00,0.00
15min,AgWx,beryljct,423,16NOV2020:09:00:00,32.8,14.71,32.6,32.2,30.6,32.2,29.2,58,61,57,0.348,17.8,18.6,16.9,1.052,1.3,12,7.4,2.7,0.00088,0.00100,33.9,40.9,8,253,.,.,6.01,0.00,0.00
15min,AgWx,beryljct,423,16NOV2020:09:15:00,36.2,14.75,34.9,34.6,33.5,34.6,32.1,54,57,51,0.350,18.5,19.2,18.0,0,0.5,346,5.1,1.8,0.00107,0.00117,33.9,40.8,8,293,.,.,6.01,0.00,0.00
15min,AgWx,beryljct,423,16NOV2020:09:30:00,39.6,14.61,37.4,36.9,35.6,36.9,34.5,50,52,48,0.359,19.0,19.8,18.3,1.82,1.2,347,9.4,2.3,0.00129,0.00145,33.9,40.7,8,333,.,.,6.01,0.00,0.00
15min,AgWx,beryljct,423,16NOV2020:09:45:00,42.7,14.59,40.9,40.2,38.6,40.3,36.9,46,48,43,0.366,19.5,20.3,19.0,2.938,2.6,333,12,4.8,0.00157,0.00186,33.9,40.7,8,371,.,.,6.01,0.00,0.00
15min,AgWx,beryljct,423,16NOV2020:10:00:00,45.2,14.6,42.5,42.2,41.3,42.5,40.2,42,44,40,0.368,19.8,20.6,19.2,2.718,3.0,354,16,4.8,0.00183,0.00219,34.0,40.6,8,406,.,.,6.01,0.00,0.00
15min,AgWx,beryljct,423,16NOV2020:10:15:00,47.4,14.52,44.8,44.3,43.4,44.3,42.2,39,40,38,0.382,20.3,21.0,19.8,2.411,2.5,0.5,14,4.7,0.00202,0.00237,34.2,40.5,9,438,.,.,6.00,0.00,0.00
15min,AgWx,beryljct,423,16NOV2020:10:30:00,49.4,14.09,45.8,46.0,45.3,46.4,44.3,38,39,37,0.388,21.1,22.2,20.4,2.214,2.7,4.9,17,4.2,0.00223,0.00262,34.4,40.5,8,468,.,.,6.00,0.00,0.00
15min,AgWx,beryljct,423,16NOV2020:10:45:00,51.3,14.16,48.1,48.1,47.2,48.2,46.0,36,38,36,0.413,21.8,22.8,20.9,2.894,3.0,1.0,15,5.5,0.00243,0.00288,34.6,40.4,8,494,.,.,6.00,0.00,0.00
15min,AgWx,beryljct,423,16NOV2020:11:00:00,53.0,14.01,49.4,50.1,49.3,50.4,48.1,35,36,34,0.421,22.9,24.2,22.2,3.135,3.0,6.6,18,5.9,0.00262,0.00310,35.0,40.3,8,517,.,.,6.00,0.00,0.00
15min,AgWx,beryljct,423,16NOV2020:11:15:00,54.7,13.98,51.3,51.4,50.8,51.7,50.0,34,35,32,0.415,23.1,24.0,22.5,2.872,3.3,19,23,5.2,0.00280,0.00334,35.3,40.3,8,538,.,.,5.99,0.00,0.00
15min,AgWx,beryljct,423,16NOV2020:11:30:00,56.1,14.02,53.1,53.1,52.5,53.6,51.4,32,33,30,0.422,23.2,24.6,22.4,2.631,2.9,16,22,5.5,0.00291,0.00343,35.8,40.2,8,554,.,.,5.99,0.00,0.00
15min,AgWx,beryljct,423,16NOV2020:11:45:00,57.5,13.94,54.9,54.6,54.0,55.1,53.0,30,31,29,0.434,23.5,24.8,22.8,2.148,2.7,35,39,4.4,0.00302,0.00354,36.3,40.2,8,567,.,.,5.98,0.00,0.00
15min,AgWx,beryljct,423,16NOV2020:12:00:00,58.8,13.9,57.0,55.9,55.3,56.2,54.6,29,30,28,0.435,23.6,24.7,22.8,1.425,2.7,69,43,5.0,0.00313,0.00368,36.8,40.2,8,576,.,.,5.98,0.00,0.00
15min,AgWx,beryljct,423,16NOV2020:12:15:00,59.9,13.87,59.5,58.0,57.1,58.0,56.1,27,29,26,0.434,23.8,25.0,23.0,0,1.6,59,25,4.3,0.00314,0.00356,37.3,40.2,8,581,.,.,5.98,0.00,0.00
15min,AgWx,beryljct,423,16NOV2020:12:30:00,61.2,13.86,60.8,59.8,58.7,59.9,57.8,26,28,26,0.474,24.4,26.0,23.5,2.017,1.4,106,20,4.1,0.00320,0.00361,37.9,40.1,8,584,.,.,5.97,0.00,0.00
15min,AgWx,beryljct,423,16NOV2020:12:45:00,62.5,13.82,60.7,60.6,60.0,60.7,59.3,26,27,24,0.482,24.8,26.4,23.4,3.398,3.0,91,36,5.3,0.00340,0.00404,38.5,40.1,8,581,.,.,5.97,0.00,0.00
15min,AgWx,beryljct,423,16NOV2020:13:00:00,63.4,13.79,61.3,61.1,60.7,61.1,60.0,25,27,24,0.457,25.1,26.8,24.1,0.263,3.0,92,19,5.4,0.00339,0.00404,39.2,40.1,8,574,.,.,5.97,0.00,0.00
15min,AgWx,beryljct,423,16NOV2020:13:15:00,64.5,13.74,61.9,63.2,62.4,63.7,61.2,24,26,22,0.458,25.3,26.9,24.2,0.504,1.5,102,40,3.4,0.00321,0.00365,39.9,40.2,8,564,.,.,5.97,0.00,0.00
15min,AgWx,beryljct,423,16NOV2020:13:30:00,65.8,13.73,64.3,63.4,63.2,63.9,62.3,23,25,22,0.462,25.1,26.3,24.1,1.951,2.2,113,42,5.0,0.00325,0.00381,40.5,40.2,8,551,.,.,5.96,0.00,0.00
15min,AgWx,beryljct,423,16NOV2020:13:45:00,66.9,13.72,65.8,65.4,64.7,65.8,63.5,22,24,20,0.449,25.3,27.3,23.6,0.965,2.4,106,19,4.3,0.00320,0.00380,41.2,40.2,8,533,.,.,5.96,0.00,0.00
15min,AgWx,beryljct,423,16NOV2020:14:00:00,67.9,13.67,66.8,67.5,66.4,67.6,65.5,21,22,20,0.464,25.4,27.0,24.2,3.814,3.6,101,21,6.0,0.00323,0.00403,41.8,40.3,8,500,.,.,5.96,0.00,0.00
15min,AgWx,beryljct,423,16NOV2020:14:15:00,69.2,13.63,68.9,69.1,68.2,69.2,67.3,19,21,16,0.378,24.0,26.4,20.4,8.44,5.3,134,20,9.7,0.00342,0.00450,42.5,40.4,8,480,.,.,5.96,0.00,0.00
15min,AgWx,beryljct,423,16NOV2020:14:30:00,70.1,13.62,69.3,70.2,69.5,70.5,68.8,15,16,14,0.363,19.8,21.6,18.0,10.48,7.2,173,17,11.2,0.00370,0.00513,43.1,40.4,8,458,.,.,5.96,0.00,0.00
15min,AgWx,beryljct,423,16NOV2020:14:45:00,70.9,13.68,69.7,69.4,69.7,70.1,69.3,14,15,14,0.354,19.1,20.7,17.8,7.125,8.1,187,17,11.4,0.00364,0.00522,43.7,40.6,8,424,.,.,5.96,0.00,0.00
15min,AgWx,beryljct,423,16NOV2020:15:00:00,71.2,13.64,69.4,69.3,69.6,70.1,69.3,15,15,14,0.358,19.4,20.8,17.7,10.3,8.5,198,15,12.4,0.00353,0.00513,44.3,40.6,8,396,.,.,5.96,0.00,0.00
15min,AgWx,beryljct,423,16NOV2020:15:15:00,71.2,13.63,68.4,68.9,69.1,69.5,68.7,15,16,14,0.350,19.3,21.2,18.4,11.38,9.8,193,10,13.6,0.00350,0.00526,44.7,40.8,8,360,.,.,5.97,0.00,0.00
15min,AgWx,beryljct,423,16NOV2020:15:30:00,70.9,13.63,67.9,67.8,68.3,68.9,67.7,15,16,14,0.360,19.1,21.2,18.0,8.64,10.9,194,10,14.2,0.00340,0.00526,45.2,40.9,8,321,.,.,5.97,0.00,0.00
15min,AgWx,beryljct,423,16NOV2020:15:45:00,70.2,13.64,67.3,67.4,67.6,67.9,67.4,15,17,14,0.332,18.8,20.8,17.4,11.2,8.7,206,6.9,11.6,0.00176,0.00043,45.5,41.0,8,274,.,.,5.97,0.00,0.00
15min,AgWx,beryljct,423,16NOV2020:16:00:00,69.6,13.67,67.0,67.0,67.3,67.5,67.0,15,17,14,0.357,18.4,20.4,16.6,6.927,7.6,219,11,10.2,0.00237,0.00374,45.9,41.1,8,241,.,.,5.97,0.00,0.00
15min,AgWx,beryljct,423,16NOV2020:16:15:00,69.0,13.66,66.3,66.6,66.9,67.3,66.6,16,17,14,0.362,18.8,20.1,16.9,5.459,5.9,212,8.5,8.0,0.00179,0.00288,46.2,41.3,8,199,.,.,5.97,0.00,0.00
15min,AgWx,beryljct,423,16NOV2020:16:30:00,68.2,13.68,64.5,64.7,65.6,66.5,64.7,16,17,15,0.355,18.8,20.3,17.4,5.502,5.9,223,8.9,7.7,0.00133,0.00175,46.4,41.4,8,158,.,.,5.96,0.00,0.00
15min,AgWx,beryljct,423,16NOV2020:16:45:00,66.9,13.7,62.5,62.6,63.8,64.7,62.6,17,18,17,0.354,18.8,19.6,17.9,5.239,5.5,228,3.6,6.7,0.00115,0.00152,46.5,41.6,8,118,.,.,5.97,0.00,0.00
15min,AgWx,beryljct,423,16NOV2020:17:00:00,64.8,13.75,57.2,58.2,60.9,62.6,58.2,20,23,18,0.378,19.2,21.0,18.1,3.573,4.7,236,3.4,5.7,0.00085,0.00115,46.6,41.8,8,78,.,.,5.97,0.00,0.00
15min,AgWx,beryljct,423,16NOV2020:17:15:00,61.6,13.12,48.2,49.7,55.5,58.0,49.7,24,33,20,0.397,19.3,21.6,16.9,2.696,4.2,240,6.3,5.5,0.00062,0.00084,46.7,41.9,8,17,.,.,5.98,0.00,0.00
15min,AgWx,beryljct,423,16NOV2020:17:30:00,57.3,13.06,51.0,51.0,50.1,52.5,47.8,31,36,27,0.375,20.9,22.1,19.8,1.6,2.4,221,18,4.8,0.00033,0.00048,46.7,42.1,8,6,.,.,5.98,0.00,0.00
15min,AgWx,beryljct,423,16NOV2020:17:45:00,54.3,13.04,50.8,52.8,53.8,55.4,50.9,25,29,23,0.350,18.6,20.2,17.6,0.833,1.8,184,16,2.7,0.00031,0.00047,46.6,42.2,8,1,.,.,5.98,0.00,0.00
15min,AgWx,beryljct,423,16NOV2020:18:00:00,52.2,13.02,50.1,49.0,51.5,52.7,49.0,27,29,25,0.347,18.4,19.3,17.4,0.373,1.5,229,6.4,2.1,0.00024,0.00038,46.5,42.4,9,0,.,.,5.98,0.00,0.00
15min,AgWx,beryljct,423,16NOV2020:18:15:00,50.2,13.01,48.9,48.5,48.7,50.2,47.3,30,32,28,0.336,18.4,19.3,17.6,2.214,2.2,94,43,3.6,0.00029,0.00043,46.3,42.5,8,0,.,.,5.98,0.00,0.00
15min,AgWx,beryljct,423,16NOV2020:18:30:00,47.9,12.98,42.0,41.8,42.2,48.5,39.8,40,46,29,0.370,19.1,21.0,16.1,4.494,4.4,118,9.9,7.4,0.00034,0.00045,46.1,42.7,8,0,.,.,5.98,0.00,0.00
15min,AgWx,beryljct,423,16NOV2020:18:45:00,45.9,12.99,41.9,42.1,44.2,46.6,41.8,37,41,32,0.350,19.2,20.0,18.5,0.57,2.5,145,24,4.5,0.00027,0.00038,45.8,42.8,8,0,.,.,5.99,0.00,0.00
15min,AgWx,beryljct,423,16NOV2020:19:00:00,44.7,12.97,41.8,43.1,45.3,47.8,42.0,33,39,29,0.338,17.8,18.8,17.1,1.82,2.4,152,6.7,3.7,0.00027,0.00040,45.6,42.9,8,0,.,.,5.99,0.00,0.00
15min,AgWx,beryljct,423,16NOV2020:19:15:00,43.9,12.96,46.8,45.4,44.2,47.0,42.3,33,36,30,0.319,16.9,18.5,15.9,4.099,3.8,183,14,4.8,0.00036,0.00049,45.3,43.1,8,0,.,.,5.99,0.00,0.00
15min,AgWx,beryljct,423,16NOV2020:19:30:00,43.1,12.96,38.7,38.2,40.4,45.7,38.1,39,42,31,0.321,17.3,18.0,16.5,3.069,3.1,190,26,4.7,0.00027,0.00037,45.0,43.2,8,0,.,.,5.99,0.00,0.00
15min,AgWx,beryljct,423,16NOV2020:19:45:00,41.6,12.94,34.2,33.2,35.7,38.7,33.2,44,49,40,0.307,16.0,16.7,15.1,0.57,2.2,183,20,4.1,0.00018,0.00025,44.7,43.3,8,0,.,.,5.99,0.00,0.00
15min,AgWx,beryljct,423,16NOV2020:20:00:00,39.9,12.94,39.3,34.0,33.5,35.5,32.1,50,54,45,0.328,16.6,17.3,15.4,0.745,1.5,173,45,4.4,0.00011,0.00017,44.4,43.3,8,0,.,.,5.99,0.00,0.00
15min,AgWx,beryljct,423,16NOV2020:20:15:00,38.7,12.92,36.6,35.3,36.4,38.6,33.3,44,51,39,0.338,16.4,17.8,15.4,3.858,2.7,298,43,4.8,0.00020,0.00028,44.2,43.4,8,0,.,.,5.99,0.00,0.00
15min,AgWx,beryljct,423,16NOV2020:20:30:00,37.9,12.91,34.4,34.7,35.0,35.8,32.8,45,51,40,0.285,15.9,17.7,13.6,3.836,3.3,337,7.5,4.2,0.00021,0.00029,43.9,43.5,9,0,.,.,5.99,0.00,0.00
15min,AgWx,beryljct,423,16NOV2020:20:45:00,37.1,12.9,32.3,31.8,32.6,34.7,30.8,47,52,42,0.289,14.4,15.7,13.1,0,1.5,341,26,4.0,0.00012,0.00018,43.6,43.5,8,0,.,.,6.00,0.00,0.00
15min,AgWx,beryljct,423,16NOV2020:21:00:00,36.1,12.9,31.0,32.0,32.8,34.8,31.3,47,50,43,0.303,14.7,15.7,13.5,2.784,1.0,18,55,3.1,0.00009,0.00013,43.3,43.6,9,0,.,.,5.99,0.00,0.00
15min,AgWx,beryljct,423,16NOV2020:21:15:00,35.1,12.88,30.4,31.5,29.8,31.8,28.6,55,58,50,0.296,15.4,16.8,14.8,1.14,2.3,180,8.7,4.5,0.00013,0.00018,43.1,43.6,8,0,.,.,6.00,0.00,0.00
15min,AgWx,beryljct,423,16NOV2020:21:30:00,34.2,12.89,38.4,36.7,32.0,36.7,30.2,54,60,44,0.326,17.3,18.9,14.5,0.811,0.9,276,42,2.2,0.00007,0.00010,42.8,43.7,8,0,.,.,5.99,0.00,0.00
15min,AgWx,beryljct,423,16NOV2020:21:45:00,33.7,12.87,27.2,27.2,31.4,37.4,27.2,54,69,42,0.344,16.3,18.2,14.5,4.56,3.5,120,31,6.0,0.00017,0.00023,42.5,43.7,9,0,.,.,6.00,0.00,0.00
15min,AgWx,beryljct,423,16NOV2020:22:00:00,32.9,12.86,29.2,28.0,27.6,28.1,27.1,68,70,65,0.336,18.5,19.0,17.6,2.806,2.9,154,35,5.6,0.00009,0.00013,42.3,43.7,9,0,.,.,6.00,0.00,0.00
15min,AgWx,beryljct,423,16NOV2020:22:15:00,32.0,12.86,28.2,27.5,27.6,28.5,26.9,63,65,61,0.312,16.8,17.7,15.9,2.17,1.7,189,7.3,2.9,0.00008,0.00011,42.0,43.7,8,0,.,.,6.00,0.00,0.00
15min,AgWx,beryljct,423,16NOV2020:22:30:00,31.3,12.85,29.1,28.2,28.0,29.9,27.2,60,62,58,0.327,16.0,17.0,15.4,0.614,1.6,201,17,2.9,0.00008,0.00012,41.8,43.7,9,0,.,.,6.00,0.00,0.00
15min,AgWx,beryljct,423,16NOV2020:22:45:00,30.7,12.84,26.8,26.0,26.6,28.5,25.6,65,68,62,0.325,16.5,17.3,15.7,0,1.1,47,50,2.9,0.00005,0.00008,41.5,43.7,8,0,.,.,6.00,0.00,0.00
15min,AgWx,beryljct,423,16NOV2020:23:00:00,30.1,12.83,32.5,34.0,28.6,34.2,26.2,59,68,48,0.320,15.9,17.2,14.4,3.595,2.8,309,7.9,4.1,0.00012,0.00017,41.3,43.7,8,0,.,.,6.00,0.00,0.00
15min,AgWx,beryljct,423,16NOV2020:23:15:00,30.5,12.82,33.2,34.0,34.7,36.5,32.5,48,52,44,0.317,16.8,17.6,15.8,4.143,3.7,301,11,4.4,0.00022,0.00029,41.0,43.7,8,0,.,.,6.00,0.00,0.00
15min,AgWx,beryljct,423,16NOV2020:23:30:00,31.0,12.82,29.3,29.4,32.9,34.5,29.4,50,55,46,0.302,16.2,17.4,14.7,0.132,3.0,310,10,4.3,0.00018,0.00024,40.8,43.7,8,0,.,.,6.00,0.00,0.00
15min,AgWx,beryljct,423,16NOV2020:23:45:00,30.8,12.81,29.1,28.8,28.5,29.4,26.4,59,65,56,0.304,16.2,17.1,15.3,0.022,2.6,49,41,4.8,0.00011,0.00016,40.6,43.6,8,0,.,.,6.00,0.00,0.00
15min,AgWx,bigpiney,439,16NOV2020:00:00:00,28.1,12.61,25.8,25.6,27.1,28.0,25.6,88,89,87,0.417,24.0,25.1,22.6,2.696,1.2,297,55,4.9,-0.00006,-0.00008,34.5,37.2,45,0,0,0.0,0.50,0.00,0.00
15min,AgWx,bigpiney,439,16NOV2020:00:15:00,27.8,12.6,24.7,25.0,25.4,26.2,25.0,91,93,89,0.422,23.2,24.2,22.8,4.297,4.3,40,14,7.0,-0.00002,-0.00002,34.5,37.2,45,0,0,0.0,0.50,0.00,0.00
15min,AgWx,bigpiney,439,16NOV2020:00:30:00,27.4,12.59,25.7,25.4,25.1,25.4,24.7,92,93,92,0.432,23.3,23.6,22.7,3.99,3.7,25,19,4.8,-0.00003,-0.00003,34.5,37.2,45,0,0,0.0,0.50,0.00,0.00
15min,AgWx,bigpiney,439,16NOV2020:00:45:00,27.3,12.58,25.4,25.1,25.2,25.7,24.9,92,93,92,0.426,23.3,23.8,22.9,2.17,3.3,348,27,5.2,-0.00003,-0.00004,34.4,37.3,45,0,0,0.0,0.50,0.00,0.00
15min,AgWx,bigpiney,439,16NOV2020:01:00:00,27.3,12.58,25.9,25.7,25.8,26.3,25.0,92,93,91,0.434,23.9,24.4,23.1,2.192,3.1,335,65,6.6,-0.00004,-0.00004,34.4,37.2,45,0,0,0.0,0.50,0.00,0.00
15min,AgWx,bigpiney,439,16NOV2020:01:15:00,27.3,12.56,26.4,26.0,25.9,26.1,25.7,92,92,92,0.441,24.0,24.2,23.6,0,0.7,240,25,2.4,-0.00008,-0.00011,34.4,37.2,45,0,0,0.0,0.50,0.00,0.00
15min,AgWx,bigpiney,439,16NOV2020:01:30:00,26.9,12.57,26.3,26.0,25.7,26.1,25.2,93,94,92,0.448,23.9,24.5,23.2,1.776,1.5,315,49,3.8,-0.00006,-0.00008,34.4,37.2,45,0,0,0.0,0.50,0.00,0.00
15min,AgWx,bigpiney,439,16NOV2020:01:45:00,26.4,12.56,24.3,24.6,25.3,26.0,24.6,94,94,93,0.422,23.7,24.4,23.0,0,1.0,309,11,2.2,-0.00007,-0.00010,34.4,37.2,45,0,0,0.0,0.50,0.00,0.00
15min,AgWx,bigpiney,439,16NOV2020:02:00:00,25.9,12.56,24.1,23.9,24.9,25.7,23.8,94,95,93,0.411,23.5,24.4,22.1,2.17,1.2,241,35,2.3,-0.00007,-0.00009,34.4,37.2,45,0,0,0.0,0.50,0.00,0.00
15min,AgWx,bigpiney,439,16NOV2020:02:15:00,25.6,12.55,24.8,24.7,25.0,25.5,23.8,95,96,94,0.423,23.7,24.3,22.3,3.157,1.6,286,34,3.2,-0.00006,-0.00008,34.4,37.2,45,0,0,0.0,0.50,0.00,0.00
15min,AgWx,bigpiney,439,16NOV2020:02:30:00,25.8,12.54,26.5,26.2,25.4,26.2,24.6,94,95,94,0.453,24.0,24.9,23.0,1.074,1.8,279,39,3.2,-0.00006,-0.00007,34.4,37.2,45,0,0,0.0,0.50,0.00,0.00
15min,AgWx,bigpiney,439,16NOV2020:02:45:00,26.1,12.54,26.0,25.7,25.9,26.2,25.7,94,94,94,0.444,24.4,24.7,24.2,1.885,1.9,324,17,2.7,-0.00006,-0.00007,34.4,37.2,45,0,0,0.0,0.50,0.00,0.00
15min,AgWx,bigpiney,439,16NOV2020:03:00:00,26.4,12.55,25.7,25.4,25.6,25.7,25.4,94,95,94,0.441,24.2,24.4,23.9,2.938,2.3,353,9.1,3.0,-0.00005,-0.00006,34.4,37.2,45,0,0,0.0,0.50,0.00,0.00
15min,AgWx,bigpiney,439,16NOV2020:03:15:00,26.4,12.54,24.7,24.6,25.2,25.6,24.6,95,95,95,0.426,24.0,24.4,23.2,1.293,2.4,324,26,3.0,-0.00005,-0.00006,34.4,37.2,45,0,0,0.0,0.50,0.00,0.00
15min,AgWx,bigpiney,439,16NOV2020:03:30:00,26.3,12.53,25.9,25.5,25.1,25.6,24.5,95,96,95,0.447,23.9,24.5,23.2,2.455,1.4,324,9.7,2.5,-0.00006,-0.00009,34.4,37.1,45,0,0,0.0,0.50,0.00,0.00
15min,AgWx,bigpiney,439,16NOV2020:03:45:00,26.3,12.53,25.5,25.0,25.0,25.6,24.8,95,96,95,0.435,23.8,24.4,23.5,2.28,2.3,292,16,2.8,-0.00005,-0.00006,34.4,37.2,45,0,0,0.0,0.50,0.00,0.00
15min,AgWx,bigpiney,439,16NOV2020:04:00:00,26.5,12.53,25.4,25.2,25.2,25.4,25.0,95,95,95,0.438,23.9,24.1,23.8,1.381,1.2,262,7.5,3.1,-0.00007,-0.00009,34.4,37.2,45,0,0,0.0,0.50,0.00,0.00
15min,AgWx,bigpiney,439,16NOV2020:04:15:00,26.6,12.53,26.6,26.0,25.5,26.0,25.1,95,95,94,0.454,24.2,24.8,23.7,1.184,2.1,256,15,2.9,-0.00005,-0.00007,34.4,37.2,45,0,0,0.0,0.50,0.00,0.00
15min,AgWx,bigpiney,439,16NOV2020:04:30:00,26.6,12.53,25.7,25.2,25.4,26.1,24.9,95,95,94,0.437,24.0,24.9,23.5,2.784,2.5,241,11,3.8,-0.00005,-0.00006,34.4,37.2,45,0,0,0.0,0.50,0.00,0.00
15min,AgWx,bigpiney,439,16NOV2020:04:45:00,26.6,12.52,25.5,25.2,25.1,25.7,24.7,95,95,94,0.437,23.8,24.5,23.3,1.995,2.6,236,16,3.3,-0.00005,-0.00005,34.4,37.1,45,0,0,0.0,0.50,0.00,0.00
15min,AgWx,bigpiney,439,16NOV2020:05:00:00,26.6,12.52,26.0,25.9,25.8,26.6,25.2,95,95,94,0.447,24.5,25.3,23.8,1.03,2.2,299,14,3.0,-0.00005,-0.00006,34.4,37.2,45,0,0,0.0,0.50,0.00,0.00
15min,AgWx,bigpiney,439,16NOV2020:05:15:00,26.6,12.51,24.4,24.2,25.3,26.0,24.1,94,95,93,0.415,23.8,24.7,22.5,2.784,2.2,249,37,5.3,-0.00005,-0.00006,34.4,37.2,45,0,0,0.0,0.50,0.00,0.00
15min,AgWx,bigpiney,439,16NOV2020:05:30:00,26.3,12.52,23.9,23.6,23.8,24.2,23.5,94,94,93,0.404,22.3,22.7,21.9,3.88,3.0,220,12,4.1,-0.00004,-0.00004,34.4,37.2,45,0,0,0.0,0.50,0.00,0.00
15min,AgWx,bigpiney,439,16NOV2020:05:45:00,26.1,12.51,24.8,24.4,23.9,24.6,23.4,94,95,93,0.419,22.4,23.2,21.7,3.069,3.0,248,7.0,5.0,-0.00004,-0.00004,34.4,37.2,45,0,0,0.0,0.50,0.00,0.00
15min,AgWx,bigpiney,439,16NOV2020:06:00:00,26.0,12.51,25.9,25.2,24.7,25.2,24.3,94,94,94,0.435,23.2,23.8,22.7,2.828,2.4,282,29,3.2,-0.00005,-0.00006,34.4,37.2,45,0,0,0.0,0.50,0.00,0.00
15min,AgWx,bigpiney,439,16NOV2020:06:15:00,26.1,12.52,25.2,24.7,25.2,25.7,24.7,94,95,93,0.424,23.6,24.4,23.1,0.417,2.8,315,16,3.9,-0.00004,-0.00005,34.4,37.1,45,0,0,0.0,0.50,0.00,0.00
15min,AgWx,bigpiney,439,16NOV2020:06:30:00,26.1,12.52,25.9,25.3,25.2,25.8,24.8,94,95,93,0.440,23.8,24.6,23.2,1.578,1.6,262,20,3.2,-0.00006,-0.00008,34.4,37.1,45,0,0,0.0,0.50,0.00,0.00
15min,AgWx,bigpiney,439,16NOV2020:06:45:00,26.0,12.51,24.7,24.1,25.0,25.6,23.9,94,95,93,0.414,23.5,24.4,22.1,2.214,1.5,295,11,2.2,-0.00006,-0.00008,34.4,37.2,45,0,0,0.0,0.50,0.00,0.00
15min,AgWx,bigpiney,439,16NOV2020:07:00:00,25.8,12.51,25.1,24.9,24.8,25.2,24.2,95,95,94,0.429,23.5,23.9,22.7,2.828,2.4,279,17,3.0,-0.00005,-0.00006,34.4,37.1,45,0,0,0.0,0.50,0.00,0.00
15min,AgWx,bigpiney,439,16NOV2020:07:15:00,25.7,12.52,25.6,25.1,24.2,25.1,23.3,94,95,92,0.437,22.6,23.9,21.5,1.03,2.1,267,20,3.7,-0.00004,-0.00006,34.4,37.2,45,3,0,0.0,0.50,0.00,0.00
15min,AgWx,bigpiney,439,16NOV2020:07:30:00,25.4,12.57,23.6,23.5,24.2,25.2,23.3,94,95,93,0.404,22.7,23.9,21.5,0,1.0,298,31,1.9,-0.00005,-0.00007,34.4,37.2,45,8,0,0.0,0.50,0.00,0.00
15min,AgWx,bigpiney,439,16NOV2020:07:45:00,25.1,12.71,24.4,23.9,23.1,23.9,22.5,94,95,93,0.416,21.7,22.8,20.8,2.389,1.5,238,23,3.8,-0.00024,-0.00024,34.4,37.1,45,25,0,0.0,0.50,0.00,0.00
15min,AgWx,bigpiney,439,16NOV2020:08:00:00,24.7,12.93,24.1,23.1,22.3,24.1,21.0,94,95,91,0.402,20.7,23.0,19.1,2.389,2.8,261,24,4.3,-0.00011,-0.00010,34.4,37.1,45,49,0,0.0,0.50,0.00,0.00
15min,AgWx,bigpiney,439,16NOV2020:08:15:00,24.7,14.94,27.2,26.6,24.7,26.6,22.9,95,96,93,0.461,23.4,25.1,21.2,2.324,2.4,287,15,4.0,0.00010,0.00012,34.4,37.1,45,122,0,0.0,0.50,0.00,0.00